Weather History for Prague, Czech Republic

Change the Weather History Date:

Monday, May 28, 2012

  Actual Average Record
Temperature  
Mean Temperature 60 °F -  
Max Temperature 70 °F 71 °F 84 °F (2005)
Min Temperature 49 °F 51 °F 40 °F (2013)
Degree Days  
Heating Degree Days 6    
Growing Degree Days 10 (Base 50)    
Moisture  
Dew Point 49 °F    
Average Humidity 67    
Maximum Humidity 88    
Minimum Humidity 33    
Precipitation  
Precipitation 0.01 in 0.10 in - ()
Sea Level Pressure  
Sea Level Pressure 29.94 in    
Wind  
Wind Speed 6 mph ()    
Max Wind Speed 20 mph    
Max Gust Speed -    
Visibility 6.2 miles    
Events Rain , Thunderstorm    
Averages and records for this station are not official NWS values.
T = Trace of Precipitation, MM = Missing Value Source: Averaged Metar Reports

Daily Weather History Graph

Daily Weather History Graph

Search for Another Location

Airport:

Trip Planner

Search our weather history database for the weather conditions in past years. The results will help you decide how hot, cold, wet, or windy it might be!

Date:

Astronomy

May. 28, 2012 Rise Set
Actual Time 5:01 AM CEST 8:59 PM CEST
Civil Twilight 4:19 AM CEST 9:42 PM CEST
Nautical Twilight 3:20 AM CEST 10:41 PM CEST
Astronomical Twilight 1:35 AM CEST 12:32 AM CEST
Moon 12:20 PM CEST 1:02 AM CEST
Length of Visible Light 17h 23m
Length of Day
15h 58m
Waxing Crescent, 45% of the Moon is Illuminated
May 28
Waxing Crescent
May 28
First Quarter
Jun 4
Full
Jun 11
Last Quarter
Jun 19
New

Hourly Weather History & Observations

Time (CEST) Temp. Dew Point Humidity Pressure Visibility Wind Dir Wind Speed Gust Speed Precip Events Conditions
12:00 AM 57.2 °F 46.4 °F 67% 30.04 in - West 2.3 mph - N/A   Clear
12:30 AM 55.4 °F 46.4 °F 72% 30.04 in - Calm Calm - N/A   Clear
1:00 AM 55.4 °F 44.6 °F 67% 30.01 in - Variable 2.3 mph - N/A   Clear
1:30 AM 50.0 °F 44.6 °F 82% 30.01 in - West 4.6 mph - N/A   Clear
2:00 AM 51 °F 46 °F 77% 30.03 in 31 mi West 4.5 mph - -   Mostly Cloudy
2:00 AM 50.0 °F 46.4 °F 87% 30.01 in - West 5.8 mph - N/A   Clear
2:30 AM 51.8 °F 46.4 °F 82% 30.01 in - West 5.8 mph - N/A   Clear
3:00 AM 51.8 °F 46.4 °F 82% 30.01 in - West 6.9 mph - N/A   Clear
3:30 AM 51.8 °F 46.4 °F 82% 29.98 in - West 4.6 mph - N/A   Clear
4:00 AM 51.8 °F 46.4 °F 82% 29.98 in - West 5.8 mph - N/A   Clear
4:30 AM 51.8 °F 46.4 °F 82% 29.98 in - WSW 5.8 mph - N/A   Clear
5:00 AM 50.0 °F 44.6 °F 82% 29.98 in - WSW 6.9 mph - N/A   Clear
5:30 AM 50.0 °F 46.4 °F 87% 29.98 in - WSW 8.1 mph - N/A   Clear
6:00 AM 51.8 °F 46.4 °F 82% 29.98 in - WSW 6.9 mph - N/A   Clear
6:30 AM 53.6 °F 46.4 °F 77% 29.98 in - WSW 6.9 mph - N/A   Clear
7:00 AM 55.4 °F 48.2 °F 77% 29.98 in - SW 5.8 mph - N/A   Clear
7:30 AM 57.2 °F 48.2 °F 72% 29.98 in - WSW 6.9 mph - N/A   Clear
8:00 AM 59 °F 49 °F 61% 29.96 in 25 mi WSW 4.5 mph - -   Scattered Clouds
8:00 AM 59.0 °F 48.2 °F 67% 29.98 in - WSW 6.9 mph - N/A   Clear
8:30 AM 60.8 °F 50.0 °F 68% 29.98 in - WSW 6.9 mph - N/A   Clear
9:00 AM 60.8 °F 50.0 °F 68% 29.95 in - WSW 8.1 mph - N/A   Clear
9:30 AM 64.4 °F 50.0 °F 59% 29.95 in - West 6.9 mph - N/A   Clear
10:00 AM 66.2 °F 50.0 °F 56% 29.95 in 6.2 mi WNW 5.8 mph - N/A   Partly Cloudy
10:30 AM 69.8 °F 46.4 °F 43% 29.95 in - NNW 8.1 mph - N/A   Clear
11:00 AM 66.2 °F 46.4 °F 49% 29.95 in 6.2 mi NNW 8.1 mph - N/A   Scattered Clouds
11:30 AM 68.0 °F 46.4 °F 46% 29.95 in 6.2 mi NW 9.2 mph - N/A   Scattered Clouds
12:00 PM 66.2 °F 48.2 °F 52% 29.95 in 6.2 mi North 9.2 mph - N/A   Scattered Clouds
12:30 PM 68.0 °F 48.2 °F 49% 29.92 in 6.2 mi North 6.9 mph - N/A   Scattered Clouds
12:47 PM 66.2 °F 48.2 °F 52% 29.95 in 6.2 mi NNW 18.4 mph - N/A   Scattered Clouds
1:00 PM 62.6 °F 48.2 °F 59% 29.95 in 6.2 mi NNW 19.6 mph - N/A Rain Light Rain Showers
1:17 PM 62.6 °F 48.2 °F 59% 29.95 in 6.2 mi NNW 17.3 mph - N/A   Scattered Clouds
1:30 PM 62.6 °F 46.4 °F 55% 29.92 in 6.2 mi WNW 19.6 mph - N/A   Partly Cloudy
2:00 PM 68 °F 45 °F 33% 29.89 in 37 mi WNW 6.7 mph - - Rain Light Rain Showers
2:00 PM 66.2 °F 46.4 °F 49% 29.92 in 6.2 mi WNW 11.5 mph - N/A   Partly Cloudy
2:30 PM 68.0 °F 48.2 °F 49% 29.92 in 6.2 mi NW 9.2 mph - N/A   Partly Cloudy
3:00 PM 68.0 °F 46.4 °F 46% 29.92 in 6.2 mi NW 9.2 mph - N/A   Partly Cloudy
3:13 PM 68.0 °F 48.2 °F 49% 29.92 in 6.2 mi NNW 18.4 mph - N/A Rain Light Rain Showers
3:30 PM 62.6 °F 51.8 °F 68% 29.92 in 6.2 mi NNW 9.2 mph - N/A Rain , Thunderstorm Light Rain Showers
4:00 PM 64.4 °F 53.6 °F 68% 29.89 in 6.2 mi NNW 4.6 mph - N/A   Partly Cloudy
4:30 PM 68.0 °F 51.8 °F 56% 29.89 in 6.2 mi Variable 3.5 mph - N/A   Partly Cloudy
5:00 PM 69.8 °F 50.0 °F 49% 29.89 in 6.2 mi Variable 3.5 mph - N/A   Partly Cloudy
5:30 PM 69.8 °F 51.8 °F 53% 29.86 in 6.2 mi NE 8.1 mph - N/A   Partly Cloudy
5:42 PM 66.2 °F 51.8 °F 60% 29.89 in 6.2 mi East 8.1 mph - N/A Rain Light Rain Showers
6:00 PM 66.2 °F 51.8 °F 60% 29.89 in 6.2 mi East 5.8 mph - N/A   Partly Cloudy
6:30 PM 66.2 °F 51.8 °F 60% 29.89 in 6.2 mi SSE 5.8 mph - N/A   Partly Cloudy
7:00 PM 66.2 °F 51.8 °F 60% 29.89 in - South 5.8 mph - N/A   Clear
7:30 PM 64.4 °F 51.8 °F 64% 29.89 in - South 3.5 mph - N/A   Clear
8:00 PM 62 °F 53 °F 65% 29.88 in 44 mi South 6.7 mph - -   Partly Cloudy
8:00 PM 62.6 °F 53.6 °F 72% 29.89 in - South 5.8 mph - N/A   Clear
8:30 PM 59.0 °F 51.8 °F 77% 29.89 in - South 5.8 mph - N/A   Clear
9:00 PM 57.2 °F 53.6 °F 88% 29.89 in - South 6.9 mph - N/A   Clear
9:30 PM 55.4 °F 51.8 °F 88% 29.89 in - SSW 5.8 mph - N/A   Clear
10:00 PM 53.6 °F 50.0 °F 88% 29.89 in - SW 8.1 mph - N/A   Clear
10:30 PM 53.6 °F 50.0 °F 88% 29.89 in - WSW 6.9 mph - N/A   Clear
11:00 PM 53.6 °F 50.0 °F 88% 29.89 in - WSW 8.1 mph - N/A   Clear
11:30 PM 51.8 °F 48.2 °F 88% 29.89 in - WSW 8.1 mph - N/A   Clear